Skip Page Navigation
NASA JPL Caltech
NASA Logo - Jet Propulsion Laboratory + View the NASA Portal
+ Near-Earth Object (NEO) Program
Search JPL
JPL Home Earth Solar System Stars & Galaxies Technology
JPL Solar System Dynamics
BODIES ORBITS EPHEMERIDES TOOLS PHYSICAL DATA DISCOVERY FAQ SITE MAP
JPL Small-Body Database Browser
Search: [ help ]  
(2005 RC34)
Classification: Apollo [NEO, PHA]          SPK-ID: 3279825
Ephemeris | Orbit Diagram | Orbital Elements | Physical Parameters | Close-Approach Data ]

[ hide orbit diagram ]
Orbit Diagram
Note: Make sure you have Java enabled on your browser to see the applet. This applet is provided as a 3D orbit visualization tool. The applet was implemented using 2-body methods, and hence should not be used for determining accurate long-term trajectories (over several years or decades) or planetary encounter circumstances. For accurate long-term ephemerides, please instead use our Horizons system.
Orbit Viewer

Additional Notes: the orbits shown in the applet are color coded. The planets are white lines, and the asteroid/comet is a blue line. The bright white line indicates the portion of the orbit that is above the ecliptic plane, and the darker portion is below the ecliptic plane. Likewise for the asteroid/comet orbit, the light blue indicates the portion above the ecliptic plane, and the dark blue the portion below the ecliptic plane.

Orbit Viewer applet originally written and kindly provided by Osamu Ajiki (AstroArts), and further modified by Ron Baalke (JPL).


Orbital Elements at Epoch 2456400.5 (2013-Apr-18.0) TDB
Reference: JPL 53 (heliocentric ecliptic J2000)
 Element Value Uncertainty (1-sigma)   Units 
e .5140940599315069 1.8022e-08  
a 2.060037292482271 7.7638e-09 AU
q 1.000984357179751 3.8549e-08 AU
i 10.79773112236528 7.4263e-06 deg
node 291.1434283311174 5.3725e-06 deg
peri 35.86769719383318 1.314e-05 deg
M 208.8281844149927 3.3945e-06 deg
tp 2456854.002179626302
(2014-Jul-15.50217963)
1.1826e-05 JED
period 1079.968405708957
2.96
6.1052e-06
1.672e-08
d
yr
n .3333430849430026 1.8844e-09 deg/d
Q 3.119090227784791 1.1755e-08 AU
  Orbit Determination Parameters
   # obs. used (total)      369  
   # delay obs. used      2  
   # Doppler obs. used      2  
   data-arc span      2169 days (5.94 yr)  
   first obs. used      2005-06-09  
   last obs. used      2011-05-18  
   planetary ephem.      DE405  
   SB-pert. ephem.      SB405-CPV-2  
   condition code      0  
   fit RMS      .54631  
   data source      ORB  
   producer      Otto Matic  
   solution date      2011-Dec-03 00:59:49  

Additional Information
 Earth MOID = .0374907 AU 
 T_jup = 3.586 
[ show covariance matrix ]

Ephemeris | Orbit Diagram | Orbital Elements | Physical Parameters | Close-Approach Data ]

Physical Parameter Table
Parameter Symbol Value Units Sigma Reference Notes
absolute magnitude H 19.717 mag .44723 53 autocmod 2.5a

[ show close-approach data ]
Alternate Designations
 2005 RC34 = 2005 LO40 
Ephemeris | Orbit Diagram | Orbital Elements | Physical Parameters | Close-Approach Data ]
ABOUT SSD CREDITS/AWARDS PRIVACY/COPYRIGHT GLOSSARY LINKS
FirstGov 2013-May-22 14:47 UT
(server date/time)  
NASA Home Page
Site Manager:   Donald K. Yeomans
Webmaster  Alan B. Chamberlin